CAPE
0 0 0 0 0 0 0 0 0 0 0 0 0 844 1384 1353 385 82 322 223 99 368 747 1265 1624 1782 1762 1712 1663 1629 1640 1699 1657 1510 1511 1635 1712 1749 1754 1709 1528 1477 882 601 472 509 297 428 334
0 0 0 0 0 0 0 0 0 0 0 0 1341 1435 1639 1465 1015 705 563 263 271 426 850 1065 1500 1658 1709 1615 1625 1634 1742 1733 1712 1691 1756 1795 1928 1945 1890 1766 1652 1692 1304 977 527 254 177 104 25
0 0 0 0 0 0 0 0 0 0 0 0 51 1282 1444 1196 989 973 557 331 417 438 684 941 1276 1439 1525 1538 1595 1660 1677 1584 1517 1516 1864 2013 1965 1841 1581 1608 1422 1513 1219 793 342 102 7 0 0
0 0 0 0 0 0 0 0 0 0 0 0 1127 1740 1645 1274 1438 925 522 540 399 458 607 999 1020 1220 1439 1570 1637 1674 1557 1437 1368 1384 1518 1868 1824 1476 1199 1054 836 388 307 268 51 0 0 0 0
0 0 0 0 0 0 0 0 0 0 0 0 114 1702 1773 1483 948 708 637 461 410 577 720 872 988 1198 1478 1670 1682 1502 1348 1263 1309 1451 1482 1422 1269 1015 838 752 400 141 76 22 0 0 0 0 0
0 0 0 0 0 0 0 0 0 0 0 200 1306 1807 1888 1171 903 819 636 304 538 572 659 759 1031 1209 1399 1525 1437 1180 1072 1115 1220 1324 1252 1069 845 601 354 281 89 25 0 0 0 0 0 0 0
0 0 0 0 0 0 0 0 0 0 0 642 750 1769 1728 1352 1022 953 629 340 675 516 539 687 940 1147 1207 1220 1058 872 881 986 1154 1029 852 536 319 184 115 24 0 0 0 0 0 0 0 0 0
0 0 0 0 0 0 0 0 0 0 0 0 1395 1789 1815 1442 1231 1000 819 887 720 465 490 589 652 843 845 860 730 617 712 868 790 507 231 87 10 0 0 0 0 0 0 0 0 0 0 0 0
0 0 0 0 0 0 0 0 0 0 0 0 689 1727 1708 1402 1352 1189 1021 927 744 529 411 481 539 520 478 456 506 438 574 581 381 181 50 0 0 0 0 0 0 0 0 0 0 0 0 0 0
0 0 0 0 0 0 0 0 0 0 0 0 1033 1754 1646 1644 1503 1286 1121 1055 905 685 395 399 452 461 377 507 388 258 403 232 52 2 0 0 0 0 0 0 0 0 0 0 0 0 0 0 0
0 0 0 0 0 0 0 0 0 0 0 0 0 1740 1521 1634 1680 1541 1301 1131 1018 720 471 422 505 414 413 460 231 220 79 1 0 0 0 0 0 0 0 0 0 0 0 0 0 0 0 0 0
0 0 0 0 0 0 0 0 0 0 0 0 0 1592 1429 1489 1551 1715 1497 1404 1201 756 560 562 496 322 286 220 210 127 13 0 0 0 0 0 0 0 0 0 0 0 0 0 0 0 0 0 0
0 0 0 0 0 0 0 0 0 0 0 0 0 1498 1535 1495 1555 1638 1540 1466 1443 940 700 603 503 309 166 132 168 72 55 0 0 0 0 0 0 0 0 0 0 0 0 0 0 0 0 0 0
0 0 0 0 0 0 0 0 0 0 0 0 0 148 1268 1468 1622 1616 1409 1319 1290 1323 1015 772 612 316 116 169 121 65 60 12 0 0 0 0 0 0 0 0 0 0 0 0 0 0 0 0 0
0 0 0 0 0 0 0 0 0 0 0 0 0 0 836 1458 1444 1651 1491 1335 1282 1254 1261 1084 697 280 141 213 112 66 56 16 0 0 0 0 0 0 0 0 0 0 0 0 0 0 0 0 0
0 0 0 0 0 0 0 0 0 0 0 0 0 0 0 978 1409 1471 1534 1487 1262 1216 1124 1052 677 318 169 158 148 127 80 16 0 0 0 0 0 0 0 0 0 0 0 0 0 0 0 0 0
0 0 0 0 0 0 0 0 0 0 0 0 0 0 0 0 1429 1512 1411 1432 1217 1094 1009 852 635 432 246 129 129 136 92 28 1 0 0 0 0 0 0 0 0 0 0 0 0 0 0 0 0
0 0 0 0 0 0 0 0 0 0 0 0 0 0 0 0 151 1501 1525 1213 1191 1004 886 846 696 495 329 139 146 62 4 1 0 0 0 0 0 0 0 0 0 0 0 0 0 0 0 0 0
0 0 0 0 0 0 0 0 0 0 0 0 0 0 0 0 0 246 1434 1315 1073 877 783 761 657 544 372 191 136 0 0 0 0 0 0 0 0 0 0 0 0 0 0 0 0 0 0 0 0
0 0 0 0 0 0 0 0 0 0 0 0 0 0 0 0 0 0 0 875 929 829 706 761 722 505 425 385 40 1 0 0 0 0 0 0 0 0 0 0 0 0 0 0 0 0 0 0 0
0 0 0 0 0 0 0 0 0 0 0 0 0 0 0 0 0 0 0 0 991 1069 813 692 689 593 420 369 6 0 0 0 0 0 0 0 0 0 0 0 0 0 0 0 0 0 0 0 0
0 0 0 0 0 0 0 0 0 0 0 0 0 0 0 0 0 0 0 0 0 924 842 680 534 538 411 229 0 0 0 0 0 0 0 0 0 0 0 0 0 0 0 0 0 0 0 0 0
0 0 0 0 0 0 0 0 0 0 0 0 0 0 0 0 0 0 0 0 0 0 876 589 200 240 169 5 0 0 0 0 0 0 0 0 0 0 0 0 0 0 0 0 0 0 0 0 0
0 0 0 0 0 0 0 11 0 0 0 0 0 0 0 0 0 0 0 0 0 0 1 233 193 35 0 0 0 0 0 0 0 0 0 0 0 0 0 0 0 0 0 0 0 0 0 0 0
0 0 0 0 1 0 0 1 0 0 0 0 0 0 0 0 0 0 0 0 0 0 0 0 19 1 0 0 0 0 0 0 0 0 0 0 0 0 0 0 0 0 0 0 0 0 0 0 0
0 0 0 3 0 0 0 0 0 0 0 0 0 0 0 0 0 0 0 0 0 0 0 0 0 9 0 0 0 0 0 0 0 0 0 0 0 0 0 0 0 0 0 0 0 0 0 0 0
0 0 0 2 0 15 0 0 0 0 0 0 0 0 0 0 0 0 0 0 0 0 0 0 0 0 5 2 0 0 0 0 0 0 0 0 0 0 0 0 0 0 0 0 0 0 0 0 0
0 0 0 3 6 0 0 0 0 2 0 0 0 0 0 0 0 0 0 0 0 0 0 0 0 2 23 27 2 1 0 0 0 0 0 0 0 0 0 0 0 0 0 0 0 0 0 0 0
0 0 0 0 0 1 0 0 0 0 0 0 0 0 0 0 0 0 0 0 0 0 0 0 0 0 0 38 38 9 1 0 0 0 0 0 0 0 0 0 0 0 0 0 0 0 0 0 0
0 0 4 19 0 0 0 1 0 0 0 0 4 0 0 0 0 0 0 0 0 0 0 0 0 0 0 0 0 0 6 0 0 0 0 0 0 0 0 0 0 0 0 0 0 0 0 0 0
CIN
-0 -0 -0 -0 -0 -0 -0 -0 -0 -0 -0 -0 -0 -161 -168 -171 -148 -166 -777 -906 -1000 -791 -579 -429 -306 -274 -269 -248 -205 -159 -116 -106 -89 -91 -62 -22 -8 -2 -0 -0 -0 -0 -35 -76 -86 -76 -146 -103 -123
-0 -0 -0 -0 -0 -0 -0 -0 -0 -0 -0 -22 -147 -217 -209 -230 -380 -651 -671 -832 -868 -757 -545 -470 -337 -306 -274 -274 -218 -165 -99 -84 -73 -55 -35 -13 -0 -0 -0 -0 -1 -0 -0 -4 -55 -135 -189 -291 -483
-0 -0 -0 -0 -0 -0 -0 -0 -0 -0 -0 -0 -159 -280 -256 -341 -557 -600 -766 -811 -761 -729 -613 -477 -353 -330 -292 -284 -232 -160 -123 -98 -87 -63 -21 -3 -0 -0 -0 -0 -1 -1 -3 -27 -88 -233 -453 -0 -0
-0 -0 -0 -0 -0 -0 -0 -0 -0 -0 -0 -0 -200 -190 -249 -354 -398 -657 -820 -749 -750 -701 -646 -469 -396 -360 -291 -255 -217 -158 -152 -130 -114 -65 -44 -5 -0 -2 -21 -18 -31 -122 -133 -141 -286 -79 -0 -0 -0
-0 -0 -0 -0 -0 -0 -0 -0 -0 -0 -0 -0 -110 -155 -223 -344 -596 -733 -735 -768 -760 -663 -572 -479 -412 -318 -264 -217 -185 -178 -185 -161 -128 -60 -38 -38 -34 -54 -73 -78 -141 -235 -291 -365 -0 -0 -0 -0 -0
-0 -0 -0 -0 -0 -0 -0 -0 -0 -0 -0 -59 -151 -180 -208 -409 -487 -568 -657 -786 -689 -641 -569 -481 -366 -284 -251 -228 -232 -247 -214 -173 -143 -91 -72 -89 -103 -145 -198 -220 -329 -441 -0 -0 -0 -0 -0 -0 -0
-0 -0 -0 -0 -0 -0 -0 -0 -0 -0 -0 -47 -162 -187 -243 -290 -432 -477 -566 -679 -600 -605 -553 -455 -362 -298 -281 -279 -299 -320 -252 -187 -136 -150 -169 -226 -277 -306 -322 -429 -58 -0 -0 -0 -0 -0 -0 -0 -0
-0 -0 -0 -0 -0 -0 -0 -0 -0 -0 -0 -0 -160 -163 -178 -228 -430 -443 -526 -500 -515 -578 -523 -470 -395 -352 -362 -335 -357 -369 -294 -215 -210 -274 -403 -461 -468 -0 -0 -0 -0 -0 -0 -0 -0 -0 -0 -0 -0
-0 -0 -0 -0 -0 -0 -0 -0 -0 -0 -0 -0 -156 -164 -200 -352 -401 -422 -428 -427 -467 -511 -542 -481 -441 -409 -460 -454 -398 -416 -330 -293 -354 -428 -549 -0 -0 -0 -0 -0 -0 -0 -0 -0 -0 -0 -0 -0 -0
-0 -0 -0 -0 -0 -0 -0 -0 -0 -0 -0 -0 -148 -189 -230 -395 -396 -400 -407 -408 -441 -506 -556 -544 -474 -439 -483 -414 -438 -490 -388 -435 -560 -295 -0 -0 -0 -0 -0 -0 -0 -0 -0 -0 -0 -0 -0 -0 -0
-0 -0 -0 -0 -0 -0 -0 -0 -0 -0 -0 -0 -0 -146 -222 -263 -279 -321 -358 -433 -468 -515 -562 -533 -482 -458 -444 -421 -507 -498 -591 -100 -0 -0 -0 -0 -0 -0 -0 -0 -0 -0 -0 -0 -0 -0 -0 -0 -0
-0 -0 -0 -0 -0 -0 -0 -0 -0 -0 -0 -0 -0 -195 -193 -236 -282 -280 -293 -323 -333 -447 -501 -479 -455 -482 -487 -519 -524 -570 -680 -0 -0 -0 -0 -0 -0 -0 -0 -0 -0 -0 -0 -0 -0 -0 -0 -0 -0
-0 -0 -0 -0 -0 -0 -0 -0 -0 -0 -0 -0 -0 -174 -158 -198 -254 -290 -281 -246 -230 -329 -387 -435 -456 -492 -557 -536 -506 -586 -617 -0 -0 -0 -0 -0 -0 -0 -0 -0 -0 -0 -0 -0 -0 -0 -0 -0 -0
-0 -0 -0 -0 -0 -0 -0 -0 -0 -0 -0 -0 -0 -177 -198 -203 -255 -289 -318 -314 -288 -270 -329 -347 -366 -452 -586 -496 -507 -539 -580 -607 -0 -0 -0 -0 -0 -0 -0 -0 -0 -0 -0 -0 -0 -0 -0 -0 -0
-0 -0 -0 -0 -0 -0 -0 -0 -0 -0 -0 -0 -0 -0 -224 -218 -245 -268 -372 -400 -418 -371 -315 -320 -367 -435 -539 -474 -515 -509 -551 -623 -0 -0 -0 -0 -0 -0 -0 -0 -0 -0 -0 -0 -0 -0 -0 -0 -0
-0 -0 -0 -0 -0 -0 -0 -0 -0 -0 -0 -0 -0 -0 -0 -276 -266 -307 -355 -367 -369 -310 -299 -322 -356 -410 -483 -494 -475 -455 -485 -570 -79 -0 -0 -0 -0 -0 -0 -0 -0 -0 -0 -0 -0 -0 -0 -0 -0
-0 -0 -0 -0 -0 -0 -0 -0 -0 -0 -0 -0 -0 -0 -0 -0 -284 -286 -309 -380 -395 -407 -348 -346 -377 -413 -457 -502 -479 -437 -428 -509 -211 -0 -0 -0 -0 -0 -0 -0 -0 -0 -0 -0 -0 -0 -0 -0 -0
-0 -0 -0 -0 -0 -0 -0 -0 -0 -0 -0 -0 -0 -0 -0 -0 -131 -291 -311 -372 -372 -402 -392 -336 -333 -348 -362 -426 -401 -389 -115 -488 -0 -0 -0 -0 -0 -0 -0 -0 -0 -0 -0 -0 -0 -0 -0 -0 -0
-0 -0 -0 -0 -0 -0 -0 -0 -0 -0 -0 -0 -0 -0 -0 -0 -0 -130 -322 -367 -425 -413 -409 -393 -337 -364 -320 -348 -387 -221 -0 -0 -0 -0 -0 -0 -0 -0 -0 -0 -0 -0 -0 -0 -0 -0 -0 -0 -0
-0 -0 -0 -0 -0 -0 -0 -0 -0 -0 -0 -0 -0 -0 -0 -0 -0 -0 -0 -222 -342 -457 -482 -432 -419 -346 -367 -308 -424 -120 -0 -0 -0 -0 -0 -0 -0 -0 -0 -0 -0 -0 -0 -0 -0 -0 -0 -0 -0
-0 -0 -0 -0 -0 -0 -0 -0 -0 -0 -0 -0 -0 -0 -0 -0 -0 -0 -0 -0 -191 -294 -428 -453 -416 -433 -393 -305 -223 -0 -0 -0 -0 -0 -0 -0 -0 -0 -0 -0 -0 -0 -0 -0 -0 -0 -0 -0 -0
-0 -0 -0 -0 -0 -0 -0 -0 -0 -0 -0 -0 -0 -0 -0 -0 -0 -0 -0 -0 -0 -189 -269 -318 -447 -363 -305 -289 -0 -0 -0 -0 -0 -0 -0 -0 -0 -0 -0 -0 -0 -0 -0 -0 -0 -0 -0 -0 -0
-0 -0 -0 -0 -0 -0 -0 -0 -0 -0 -0 -0 -0 -0 -0 -0 -0 -0 -0 -0 -0 -0 -137 -228 -270 -265 -282 -365 -0 -0 -0 -0 -0 -0 -0 -0 -0 -0 -0 -0 -0 -0 -0 -0 -0 -0 -0 -0 -0
-0 -0 -0 -0 -0 -0 -0 -0 -0 -0 -0 -0 -0 -0 -0 -0 -0 -0 -0 -0 -0 -0 -0 -218 -228 -306 -0 -0 -0 -0 -0 -0 -0 -0 -0 -0 -0 -0 -0 -0 -0 -0 -0 -0 -0 -0 -0 -0 -0
-0 -0 -0 -0 -14 -0 -0 -8 -0 -0 -0 -0 -0 -0 -0 -0 -0 -0 -0 -0 -0 -0 -0 -0 -232 -0 -1 -0 -0 -0 -0 -0 -0 -0 -0 -0 -0 -0 -0 -0 -0 -0 -0 -0 -0 -0 -0 -0 -0
-0 -0 -0 -23 -0 -0 -0 -0 -0 -0 -0 -0 -0 -0 -0 -0 -0 -0 -0 -0 -0 -0 -0 -0 -0 -0 -0 -0 -0 -0 -0 -0 -0 -0 -0 -0 -0 -0 -0 -0 -0 -0 -0 -0 -0 -0 -0 -0 -0
-0 -0 -4 -4 -0 -9 -0 -0 -0 -0 -0 -0 -0 -0 -0 -0 -0 -0 -0 -0 -0 -0 -0 -0 -0 -0 -0 -1 -0 -0 -0 -0 -0 -0 -0 -0 -0 -0 -0 -0 -0 -0 -0 -0 -0 -0 -0 -0 -0
-0 -0 -0 -17 -8 -0 -0 -0 -0 -0 -0 -0 -0 -0 -0 -0 -0 -0 -0 -0 -0 -0 -0 -0 -0 -5 -11 -1 -0 -0 -0 -0 -0 -0 -0 -0 -0 -0 -0 -0 -0 -0 -0 -0 -0 -0 -0 -0 -0
-0 -0 -0 -0 -0 -5 -7 -0 -0 -0 -0 -0 -0 -0 -0 -0 -0 -0 -0 -0 -0 -0 -0 -0 -0 -0 -0 -40 -104 -112 -11 -0 -0 -0 -0 -0 -0 -0 -0 -0 -0 -0 -0 -0 -0 -0 -0 -0 -0
-0 -0 -51 -10 -0 -0 -0 -57 -9 -0 -0 -0 -38 -15 -0 -0 -0 -0 -0 -0 -0 -0 -0 -0 -0 -0 -0 -0 -0 -4 -168 -0 -0 -0 -0 -0 -0 -0 -0 -0 -0 -0 -0 -0 -0 -0 -0 -0 -0
Wind_Speed
3 5 1 5 4 4 4 8 4 11 5 5 4 7 5 3 8 6 4 9 20 17 16 17 19 20 21 21 20 18 17 18 18 17 16 14 14 13 12 11 11 13 13 12 11 11 9 9 10
3 5 5 3 4 3 6 6 5 7 7 4 8 6 2 2 5 7 6 8 22 16 13 14 19 21 21 21 20 18 17 17 17 17 16 15 14 12 11 11 10 11 13 13 10 9 7 7 10
3 2 4 4 4 6 5 3 8 15 13 8 6 4 6 8 8 7 11 15 18 15 14 12 17 19 20 21 20 18 17 16 16 16 17 16 15 15 14 13 11 11 13 13 9 8 6 7 9
3 5 4 2 8 9 7 15 12 17 10 9 5 8 3 3 8 10 21 19 17 14 13 15 15 18 19 20 20 18 17 16 16 15 16 17 17 17 17 13 12 12 12 11 9 7 7 6 8
4 4 2 2 8 8 7 8 11 16 5 3 3 5 1 4 14 21 20 19 19 13 11 13 15 17 19 19 19 17 16 15 16 15 15 16 17 17 16 15 14 13 13 12 10 8 6 7 11
4 4 2 4 8 8 7 10 7 6 6 4 6 5 1 9 17 14 16 17 15 15 13 13 15 15 17 18 18 17 14 14 15 16 16 16 15 15 16 16 16 14 12 12 11 8 5 6 14
6 4 7 5 8 12 8 8 7 7 6 5 6 5 2 5 8 12 12 12 12 13 13 10 11 13 14 15 15 16 15 13 14 17 16 16 15 14 15 16 18 16 13 11 10 8 5 6 13
6 6 4 4 7 16 3 9 5 6 8 10 10 7 5 6 10 12 9 10 11 13 12 11 8 9 10 10 13 14 14 14 16 15 16 15 15 15 16 14 15 17 16 13 10 6 4 7 13
5 2 6 7 6 15 15 3 5 4 1 4 6 6 8 15 16 14 13 8 10 9 12 11 10 8 7 6 9 12 16 17 17 15 18 13 7 8 11 12 15 14 13 13 12 10 7 9 16
6 5 11 8 10 12 12 5 5 3 7 6 2 6 15 17 17 19 17 15 14 15 14 13 11 10 9 8 8 8 11 9 8 7 9 7 6 6 8 11 14 16 14 12 10 8 7 9 5
4 6 6 10 10 12 10 8 2 1 6 8 5 6 13 8 9 14 15 20 22 16 12 14 14 12 11 9 6 5 5 5 5 8 8 6 5 4 4 3 4 4 10 4 5 4 2 5 5
6 11 6 9 4 4 6 5 9 6 8 8 4 14 16 13 12 15 15 16 16 17 15 15 14 13 11 8 7 7 6 6 5 7 8 7 5 5 5 4 5 5 4 6 5 3 4 6 7
7 7 8 9 12 7 7 9 8 14 10 9 6 13 20 19 18 14 12 11 13 16 16 17 16 14 11 11 7 8 8 7 8 8 8 7 6 6 5 4 4 4 5 5 5 5 5 6 7
4 8 10 8 10 9 7 11 2 13 10 9 9 11 16 20 23 16 14 16 20 18 19 18 17 15 14 12 11 8 8 8 8 7 9 9 7 6 6 5 5 4 5 5 5 6 5 5 6
6 10 12 14 5 9 4 19 12 15 10 12 17 15 15 21 19 22 24 23 26 23 21 21 21 18 16 17 14 10 9 9 9 8 11 11 9 8 8 7 5 5 5 7 5 5 5 5 6
7 4 7 2 7 10 7 22 20 19 11 18 18 16 13 21 24 26 23 23 19 18 23 20 18 20 18 15 13 12 11 9 9 8 9 12 12 10 7 6 6 5 5 6 6 6 5 5 7
1 9 9 12 8 9 9 15 14 14 12 14 15 17 16 11 19 22 22 23 21 21 21 22 24 24 22 18 13 12 14 12 10 9 10 14 13 11 8 6 5 7 7 6 8 4 7 6 5
5 6 7 7 9 12 19 21 11 11 8 10 9 8 9 10 19 24 22 18 19 20 21 20 19 20 20 14 13 9 7 9 9 9 10 12 11 12 8 6 7 6 6 5 4 7 3 4 7
9 16 20 17 14 17 20 25 13 7 7 9 10 9 10 10 11 13 21 21 20 19 20 22 22 22 16 13 14 13 13 10 10 11 13 14 11 11 10 7 7 6 8 9 7 4 7 3 5
14 18 19 14 8 13 17 31 9 5 7 8 16 16 15 18 20 14 17 12 18 26 25 23 24 23 20 16 13 9 11 5 9 8 10 12 12 12 10 10 9 9 6 7 6 6 4 3 8
13 13 16 22 8 6 8 23 2 3 6 14 13 9 13 12 14 19 20 19 15 20 23 24 25 26 22 19 11 6 6 4 5 7 9 9 9 9 8 10 9 9 7 8 8 7 8 8 6
15 13 16 12 4 10 5 14 15 0 11 12 12 14 15 18 17 17 19 22 17 15 15 17 19 19 18 17 15 17 15 11 8 8 6 8 10 9 7 9 9 8 5 6 6 5 3 6 10
8 9 7 4 4 4 6 4 15 6 6 7 14 13 15 16 18 22 19 16 17 20 11 12 13 14 14 17 17 14 14 12 8 8 11 11 9 9 8 8 7 8 6 6 7 6 5 3 5
7 4 7 3 4 6 8 8 19 3 3 4 7 10 12 14 15 16 19 21 18 17 18 4 12 13 14 15 17 20 19 14 11 11 11 9 8 7 8 7 6 6 6 7 5 5 6 4 3
9 5 4 3 2 13 4 7 8 6 6 7 5 4 6 10 14 16 18 17 21 17 14 18 7 12 13 16 17 18 15 16 16 15 12 13 10 7 10 8 8 6 6 6 6 5 5 5 3
3 5 4 6 5 4 4 7 2 5 4 6 6 7 10 11 6 8 12 14 16 19 17 9 14 15 10 11 11 7 5 7 8 10 10 10 10 10 11 8 7 7 9 8 7 5 4 5 5
2 3 1 3 5 4 6 1 3 6 3 5 6 6 5 6 7 5 3 3 6 13 14 15 14 16 9 6 9 8 11 12 11 15 12 10 10 9 10 10 10 9 9 10 9 6 6 7 6
3 2 1 2 5 11 5 6 5 7 5 1 4 6 7 8 8 7 5 6 3 3 2 9 14 16 7 9 7 3 4 10 10 9 10 12 10 11 12 12 11 11 11 10 10 8 7 9 4
1 1 2 1 2 4 9 7 4 11 11 6 7 10 11 9 8 8 7 7 8 5 4 1 5 11 15 6 4 6 5 4 7 10 10 11 11 13 13 14 14 15 13 11 11 11 11 10 7
5 8 6 5 5 3 3 5 4 1 4 9 8 13 10 9 10 9 8 7 7 7 6 5 5 4 3 7 8 5 5 6 6 6 5 7 10 11 13 14 14 14 14 14 15 14 11 11 10
Wind_Direction
249 214 115 47 38 68 246 260 271 289 283 228 333 122 161 86 142 213 25 116 127 147 157 154 154 148 144 141 141 141 140 135 132 129 127 126 124 124 126 126 126 121 113 103 97 90 80 67 63
209 153 39 87 91 327 276 231 250 272 262 159 104 131 96 114 98 133 108 147 135 145 152 153 156 151 148 144 142 144 143 138 135 133 131 130 127 126 132 122 119 122 119 108 99 94 80 67 65
217 84 97 133 155 202 231 258 315 297 296 248 125 36 145 136 143 139 131 141 134 146 151 154 157 152 150 146 144 147 144 140 135 134 130 132 128 122 120 116 119 110 101 95 104 99 81 60 62
124 15 24 113 251 250 263 285 293 289 292 260 128 99 25 299 148 150 140 144 144 150 146 151 161 154 151 148 145 146 144 142 136 135 133 131 131 127 120 113 114 125 116 111 116 101 83 61 59
42 62 41 289 260 271 274 266 291 291 232 274 107 141 69 16 115 134 145 148 146 149 144 153 155 157 154 151 147 146 146 147 141 137 129 125 129 130 125 120 128 130 128 123 112 97 85 68 57
29 97 52 259 273 277 274 289 267 284 312 345 75 80 307 120 131 153 149 149 147 145 146 156 156 159 157 154 150 148 150 150 145 140 135 131 131 133 129 127 128 126 127 122 112 102 72 63 70
155 87 223 235 272 295 291 305 337 329 316 346 98 85 299 124 151 145 143 140 134 142 143 152 162 161 159 155 153 151 153 153 147 145 143 133 130 139 137 138 136 134 131 120 118 120 109 73 80
147 138 268 216 273 281 268 320 295 39 307 319 140 152 193 199 142 140 117 129 138 145 151 155 164 165 160 163 160 158 155 152 151 147 134 131 141 143 143 141 143 142 137 132 126 118 101 83 93
115 57 261 225 219 263 284 269 268 252 18 322 341 163 187 137 130 128 127 136 145 155 160 160 162 169 155 151 168 149 151 155 152 148 131 136 148 146 146 149 147 144 141 142 144 141 122 82 107
145 177 239 201 239 273 279 253 285 12 345 297 9 25 134 142 147 152 163 167 170 169 172 166 165 169 159 159 166 145 146 151 149 141 144 147 151 145 149 151 152 152 151 150 148 143 129 109 114
222 217 251 271 250 257 273 295 250 165 277 268 243 140 152 156 169 167 175 176 179 172 169 175 166 167 165 160 156 150 144 148 146 144 154 147 148 151 140 143 149 148 156 146 139 130 90 106 113
276 275 236 272 259 309 283 272 303 210 244 256 218 162 166 176 191 185 181 178 176 177 174 172 171 168 168 160 165 158 160 163 160 163 158 157 162 156 159 160 161 158 146 145 143 136 129 114 113
276 278 281 282 298 280 269 264 250 266 257 270 259 167 178 190 201 195 190 178 173 182 185 181 173 174 166 164 167 171 176 173 172 171 166 165 170 172 163 172 168 168 149 151 146 143 129 114 114
293 288 286 293 309 284 294 281 257 266 264 263 255 198 195 192 196 195 180 182 190 186 187 183 187 183 169 173 174 179 180 178 173 177 177 173 175 172 172 171 184 179 166 159 149 149 138 128 115
307 317 316 290 286 280 341 282 266 275 276 265 268 262 194 204 197 198 196 191 188 191 183 186 184 182 183 178 168 183 187 184 181 182 181 173 177 179 174 174 182 190 173 153 140 127 117 113 114
314 304 297 36 330 278 146 283 282 277 271 271 265 260 236 214 199 205 202 203 192 187 192 184 185 183 180 183 182 182 190 186 187 180 182 185 180 177 174 173 182 170 158 156 151 146 135 131 127
278 268 262 297 269 268 180 270 268 284 272 263 267 263 252 208 213 217 207 201 190 189 187 189 190 187 181 178 183 188 191 189 193 183 186 182 182 178 171 171 171 160 162 164 155 144 146 148 133
240 248 239 241 296 302 290 280 275 270 288 277 284 285 281 263 210 215 212 195 191 189 190 192 192 188 183 178 179 184 178 202 179 194 189 188 176 172 164 160 165 157 152 148 147 148 137 145 149
254 269 274 276 279 282 291 289 295 298 313 318 289 285 300 305 328 254 215 196 189 187 188 191 189 192 181 182 183 181 189 184 189 188 188 180 180 174 167 164 160 164 173 171 166 141 146 123 134
250 262 272 281 276 272 280 281 306 295 286 19 35 46 24 7 2 11 6 252 196 189 194 193 193 189 192 191 190 186 180 174 186 177 189 190 179 170 167 164 172 176 160 165 171 154 134 119 167
257 271 287 281 299 294 293 281 29 342 5 51 48 41 34 23 10 1 9 352 238 208 196 193 198 196 191 186 173 142 123 106 149 179 181 187 183 176 165 167 169 172 172 181 183 171 160 155 202
273 244 265 283 16 283 85 292 292 9 84 53 31 30 19 13 15 14 8 12 345 241 222 224 196 197 195 180 175 176 177 177 198 186 171 169 181 177 168 167 166 168 157 169 185 172 157 141 182
265 239 228 201 212 300 231 205 275 37 62 67 39 19 15 19 14 9 2 9 16 1 213 213 212 205 194 179 177 181 192 190 165 164 165 177 175 185 177 172 165 168 163 163 170 164 163 147 150
294 246 224 212 158 239 254 198 277 121 143 71 47 18 11 9 11 13 12 1 8 18 3 238 208 199 192 187 184 182 185 185 163 164 169 170 174 175 175 175 165 156 155 164 163 154 157 166 142
38 47 316 294 218 253 154 211 247 127 93 82 68 15 4 17 8 7 7 9 8 353 18 3 280 212 198 196 190 186 186 179 176 172 169 164 172 181 181 171 164 163 147 139 130 135 134 155 151
319 142 176 246 247 277 294 248 252 141 110 91 60 15 17 21 7 20 2 357 1 355 355 358 26 314 218 202 196 160 159 192 171 180 170 172 178 178 166 167 157 138 130 124 120 118 110 110 113
354 244 176 198 221 255 230 339 238 183 128 63 38 10 331 308 315 285 292 81 16 328 350 0 358 13 12 253 169 176 167 195 183 172 177 171 168 170 158 149 143 141 134 132 128 112 103 92 92
178 156 138 243 239 250 230 236 225 185 186 151 310 307 318 297 297 306 301 315 256 178 324 354 5 349 31 21 1 329 197 160 162 170 173 169 158 157 155 148 138 132 126 126 117 109 103 99 96
24 327 60 225 224 238 271 262 171 194 200 178 255 257 260 279 276 276 282 254 276 277 247 358 36 5 340 288 159 142 226 243 147 157 165 166 161 160 165 158 149 149 149 144 133 131 141 131 138
216 246 183 151 270 247 258 251 8 298 195 220 280 271 268 242 254 266 263 246 241 255 254 232 188 180 207 339 322 318 233 185 171 165 166 151 164 163 160 157 154 154 154 153 151 155 151 156 160